This is the latest recevied weather packets stored in our database for station/object OK2ILA-14. If no packets are shown the sender has not sent any weather packets the latest 10 day(s).
| Time | Temp. | Humidity | Pressure | Rain* | Wind** | Luminosity | Snow |
|---|---|---|---|---|---|---|---|
| 1777181678 | 8.33° C | 54% | 1018.2 hPa | - | - | - | - |
| 1777181085 | 8.89° C | 55% | 1018 hPa | - | - | - | - |
| 1777180485 | 7.78° C | 56% | 1017.9 hPa | - | - | - | - |
| 1777179885 | 7.22° C | 56% | 1017.8 hPa | - | - | - | - |
| 1777179285 | 7.22° C | 57% | 1017.6 hPa | - | - | - | - |
| 1777178685 | 7.22° C | 57% | 1017.4 hPa | - | - | - | - |
| 1777178085 | 6.67° C | 57% | 1017.2 hPa | - | - | - | - |
| 1777177485 | 6.67° C | 58% | 1017.1 hPa | - | - | - | - |
| 1777176885 | 6.67° C | 58% | 1016.9 hPa | - | - | - | - |
| 1777176284 | 6.11° C | 59% | 1016.7 hPa | - | - | - | - |
| 1777175684 | 6.11° C | 58% | 1016.3 hPa | - | - | - | - |
| 1777175084 | 6.11° C | 58% | 1016.2 hPa | - | - | - | - |
| 1777174484 | 6.11° C | 57% | 1015.9 hPa | - | - | - | - |
| 1777173884 | 6.11° C | 56% | 1015.8 hPa | - | - | - | - |
| 1777173284 | 6.67° C | 56% | 1015.6 hPa | - | - | - | - |
| 1777172684 | 7.22° C | 54% | 1015.3 hPa | - | - | - | - |
| 1777172084 | 7.78° C | 54% | 1015 hPa | - | - | - | - |
| 1777171484 | 7.78° C | 55% | 1014.3 hPa | - | - | - | - |
| 1777170883 | 8.89° C | 58% | 1013.9 hPa | - | - | - | - |
| 1777170283 | 8.89° C | 58% | 1013.3 hPa | - | - | - | - |
| 1777169683 | 9.44° C | 56% | 1013.1 hPa | - | - | - | - |
| 1777169083 | 10.56° C | 53% | 1012.6 hPa | - | - | - | - |
| 1777168483 | 10.56° C | 51% | 1012.1 hPa | - | - | - | - |
| 1777167883 | 11.11° C | 49% | 1011.8 hPa | - | - | - | - |
| 1777167282 | 11.11° C | 48% | 1011.6 hPa | - | - | - | - |
* Rain since midnight (hover to see other rain measurements)
** Current wind speed in m/s (hover to see current wind gust speed)